Regional Weather Roundup
Issued by NWS Portland, ME

Home | Current Version | Previous Version | Text Only | Print | Product List | Glossary On
Versions: 1 2 3 4 5 6 7 8 9 10 11 12 13 14 15 16 17 18 19 20 21 22 23 24 25 26 27 28 29 30 31 32 33 34 35 36 37 38 39 40 41 42 43 44 45 46 47 48 49 50
000
ASUS41 KGYX 250410
RWRGYX
WEATHER ROUNDUP FOR MAINE AND NEW HAMPSHIRE
NATIONAL WEATHER SERVICE GRAY ME
1100 PM EST SAT FEB 24 2018

MEZ002-005-006-010-012-015-018-020-021-024-026-027-029-250500-
MAINE

CITY           SKY/WX    TMP DP  RH WIND       PRES   REMARKS
PORTLAND       FAIR      31  24  75 VRB7      30.30R
SANFORD        FAIR      24  23  96 CALM      30.29S
BAR HARBOR     FAIR      31  20  63 N6        30.30R
WISCASSET      FAIR      33  22  63 MISG      30.31R
ROCKLAND       FAIR      34  21  59 VRB6      30.30R
FRYEBURG       FAIR      28  25  88 SW3       30.28R
LEWISTONAUBURN FAIR      32  22  66 N7        30.29R
AUGUSTA        FAIR      32  19  58 N9        30.30R
WATERVILLE     FAIR      31  19  61 N10       30.26R
BANGOR         FAIR      30  19  63 N9        30.32R
GREENVILLE       N/A     23  16  74 NW5       30.24R
MILLINOCKET    FAIR      25  16  68 CALM      30.32R
HOULTON        FAIR      23   3  42 N12       30.29R WCI  12
PRESQUE ISLE   FAIR      20   3  48 N12       30.32R WCI   8
FRENCHVILLE    FAIR      15   2  56 NW10      30.28R WCI   2
CARIBOU        FAIR      19   1  45 N14G22    30.29R WCI   6
$$

NHZ002-005-008-009-011-012-014-250500-
NEW HAMPSHIRE

CITY           SKY/WX    TMP DP  RH WIND       PRES   REMARKS
PORTSMOUTH     MOCLDY    36  25  62 NE7       30.27R
ROCHESTER      FAIR      31  26  82 CALM      30.27S
NASHUA         FAIR      37  28  70 NW3       30.29R
MANCHESTER     FAIR      35  27  72 CALM      30.26S
CONCORD        FAIR      28  24  85 CALM      30.28S
LACONIA        FAIR      28  25  88 CALM      30.28R
PLYMOUTH       FAIR      25  24  94 CALM      30.27R
BERLIN         MOCLDY    28  23  81 CALM      30.27R
WHITEFIELD     FAIR      25  23  92 CALM      30.26F
JAFFREY        FAIR      30  29  96 CALM      30.25R
KEENE          FAIR      28  27  96 CALM      30.29R
LEBANON        FAIR      28  26  92 CALM      30.27R
MT WASHINGTON  MOCLDY    18   1  49 W23         N/A  WCI   0
$$

VTZ005-007-008-250500-
VERMONT

CITY           SKY/WX    TMP DP  RH WIND       PRES   REMARKS
ST JOHNSBURY     N/A     27  25  92 MISG      30.27S
MONTPELIER     FAIR      25  23  92 CALM      30.29S
BURLINGTON     FAIR      29  23  78 CALM      30.29F
$$

MAZ007-012-024-CTZ003-RIZ002-NYZ038-NYZ072-250500-
SOUTHERN NEW ENGLAND AND NY

CITY           SKY/WX    TMP DP  RH WIND       PRES   REMARKS
BOSTON         FAIR      39  30  70 N7        30.28R
WORCESTER      FAIR      38  28  67 VRB7      30.23R
NANTUCKET      CLOUDY    43  43 100 E5        30.24F
PROVIDENCE     CLOUDY    44  43  96 NE7       30.25R
HARTFORD       MOCLDY    41  34  76 N6        30.24R
ALBANY         CLOUDY    36  28  73 N6        30.26R
NEW YORK CITY  CLOUDY    44  40  85 NE8       30.21F
$$

ANZ081-ANZ082-ANZ150-NHZ014-MEZ023>029-250500-
COASTAL MARINE OBSERVATIONS

STATION/POSITION TIME  TEMP    WIND        PRES    WAVE
                       AIR SEA DIR/SP/G            HT/PER
                 (UTC) (F)     (DEG/KT/KT) (MB)    (FT/S)
MOUNT DESERT ROC 0400   36     330/ 25/ 28 1025.7R
MATINICUS ROCK   0300   38     360/ 18/ 20 1024.2R
ISLE OF SHOALS   0300   40      10/ 10/ 11 1025.1R
JEFFREYS LEDGE   0336      41                N/A     2/ 6
GEORGES BANK BUO 0250   42 56              1010.5   19/10
$$

.............KEY..............
   WCI - WIND CHILL
   TC  - TEMPERATURE IN CELSIUS
   VSB - VISIBILITY IN MILES
   HX  - HEAT INDEX
   FAIR- INDICATES FEW OR NO CLOUDS BELOW 12,000 FT, WITH NO
         SIGNIFICANT WEATHER AND/OR OBSTRUCTIONS TO VISIBILITY.






USA.gov is the U.S. government's official web portal to all federal, state and local government web resources and services.